Regional Weather Roundup
Issued by NWS

Home | Current Version | Previous Version | Graphics & Text | Print | Product List | Glossary Off
Versions: 1 2 3 4 5 6 7 8 9 10 11 12 13 14 15 16 17 18 19 20 21 22 23 24 25 26 27 28 29 30 31 32 33 34 35 36 37 38 39 40 41 42 43 44 45 46 47 48 49 50

000
ASUS43 KBIS 262102
RWRND

NORTH DAKOTA REGIONAL WEATHER ROUNDUP
NATIONAL WEATHER SERVICE BISMARCK ND
400 PM CDT FRI AUG 26 2016

NOTE: "FAIR" INDICATES FEW OR NO CLOUDS BELOW 12,000 FEET WITH NO
SIGNIFICANT WEATHER AND/OR OBSTRUCTIONS TO VISIBILITY.


NDZ001>003-009>011-017-262200-
NORTHWEST NORTH DAKOTA

CITY           SKY/WX    TMP DP  RH WIND       PRES   REMARKS
WILLISTON      CLOUDY    78  39  24 SW12G23   29.94F
MINOT          MOSUNNY   76  45  33 S10       29.95F
MINOT AFB      MOSUNNY   75  41  29 S14G20    29.93F
$$

NDZ018>021-031>035-040>046-262200-
SOUTHWEST NORTH DAKOTA

CITY           SKY/WX    TMP DP  RH WIND       PRES   REMARKS
BISMARCK       SUNNY     72  48  42 S21G30    30.05F
DICKINSON      CLOUDY    70  44  39 S14       30.00F
GARRISON         N/A     67  51  56 S15       30.00F
HETTINGER ARPT LGT RAIN  59  53  80 NE3       30.05F
$$

NDZ004>008-012>016-024-026-027-054-262200-
NORTHEAST NORTH DAKOTA

CITY           SKY/WX    TMP DP  RH WIND       PRES   REMARKS
GRAND FORKS    CLOUDY    75  52  44 SW13      30.02F
GRND FRKS AFB  CLOUDY    74  52  45 SW10      30.02F
DEVILS LAKE    CLOUDY    73  50  44 SW14      30.02F
$$

NDZ022-023-025-028>030-036>039-047>053-262200-
SOUTHEAST NORTH DAKOTA

CITY           SKY/WX    TMP DP  RH WIND       PRES   REMARKS
FARGO          CLOUDY    74  49  41 SW14      30.07F
JAMESTOWN      CLOUDY    66  52  60 SW15      30.08S
$$




USA.gov is the U.S. government's official web portal to all federal, state and local government web resources and services.